TimeCDT,TemperatureF,Dew PointF,Humidity,Sea Level PressureIn,VisibilityMPH,Wind Direction,Wind SpeedMPH,Gust SpeedMPH,PrecipitationIn,Events,Conditions,WindDirDegrees,DateUTC
12:53 AM,77.0,59.0,54,29.99,10.0,South,12.7,-,N/A,,Clear,170,2013-08-25 05:53:00
1:53 AM,75.0,60.1,60,30.00,10.0,South,12.7,-,N/A,,Clear,180,2013-08-25 06:53:00
2:53 AM,73.9,61.0,64,30.00,10.0,South,11.5,-,N/A,,Clear,180,2013-08-25 07:53:00
3:53 AM,73.0,61.0,66,30.00,10.0,South,12.7,-,N/A,,Clear,180,2013-08-25 08:53:00
4:53 AM,70.0,61.0,73,30.01,10.0,South,8.1,-,N/A,,Clear,180,2013-08-25 09:53:00
5:53 AM,69.1,60.1,73,30.02,10.0,South,8.1,-,N/A,,Clear,180,2013-08-25 10:53:00
6:53 AM,66.9,60.1,79,30.04,10.0,South,8.1,-,N/A,,Clear,190,2013-08-25 11:53:00
7:53 AM,68.0,60.1,76,30.06,10.0,SSW,5.8,-,N/A,,Clear,200,2013-08-25 12:53:00
8:53 AM,73.0,61.0,66,30.06,10.0,South,9.2,-,N/A,,Clear,170,2013-08-25 13:53:00
9:53 AM,78.1,62.1,58,30.06,10.0,South,15.0,20.7,N/A,,Clear,190,2013-08-25 14:53:00
10:53 AM,82.9,62.1,49,30.06,10.0,SSW,18.4,-,N/A,,Clear,200,2013-08-25 15:53:00
11:53 AM,87.1,62.1,43,30.05,10.0,SSW,18.4,-,N/A,,Clear,210,2013-08-25 16:53:00
12:53 PM,90.0,60.1,37,30.03,10.0,SW,17.3,-,N/A,,Clear,220,2013-08-25 17:53:00
1:53 PM,91.0,57.9,33,30.02,10.0,SSW,12.7,21.9,N/A,,Clear,200,2013-08-25 18:53:00
2:53 PM,93.0,59.0,32,30.00,10.0,SSW,13.8,20.7,N/A,,Clear,210,2013-08-25 19:53:00
3:53 PM,93.0,59.0,32,29.98,10.0,South,11.5,21.9,N/A,,Clear,170,2013-08-25 20:53:00
4:53 PM,93.0,57.0,30,29.97,10.0,South,12.7,23.0,N/A,,Clear,170,2013-08-25 21:53:00
5:53 PM,93.0,55.9,29,29.96,10.0,South,13.8,-,N/A,,Clear,180,2013-08-25 22:53:00
6:53 PM,91.9,55.9,30,29.96,10.0,South,15.0,-,N/A,,Clear,180,2013-08-25 23:53:00
7:53 PM,88.0,57.0,35,29.97,10.0,South,10.4,-,N/A,,Clear,180,2013-08-26 00:53:00
8:53 PM,84.9,60.1,43,29.99,10.0,SSE,10.4,-,N/A,,Clear,160,2013-08-26 01:53:00
9:53 PM,80.1,60.1,50,30.01,10.0,SSE,8.1,-,N/A,,Clear,160,2013-08-26 02:53:00
10:53 PM,80.1,60.1,50,30.02,10.0,SSE,10.4,-,N/A,,Clear,160,2013-08-26 03:53:00
11:53 PM,78.1,60.1,54,30.03,10.0,South,11.5,-,N/A,,Clear,170,2013-08-26 04:53:00